EZS63BD LPPT-LSGG

Flight info

Callsign EZS63BD
Flight time 2h 0m
Altitude 38000
Route IXIDA1N IXIDA DCT TOSDI N745 ZMR N976 DGO T429 TOPTU DCT TOU DCT GAI/N0426F340 DCT MEN/N0399F300 DCT NINUN DCT LATAM DCT ETREK DCT LUXAN G53 LTP Z16 BELUS
Aircraft A320/M-SDE2E3FGHIJ1RWXYZ/LB1

Departure

Time 2026-05-06 07:36
Airport Lisbon Humberto Delgado Airport (LPPT)

Arrival

Time 2026-05-06 09:37
Airport Geneva International Airport (LSGG)
Time Latitude Longitude Altitude Speed Heading
2026-05-06 06:40 38.77027 -9.13089 337 ft 0 kts 78°
2026-05-06 07:28 38.77020 -9.13134 337 ft 3 kts 77°
2026-05-06 07:29 38.77017 -9.13161 338 ft 4 kts 111°
2026-05-06 07:29 38.77033 -9.13180 334 ft 4 kts 166°
2026-05-06 07:29 38.77040 -9.13182 338 ft 4 kts 168°
2026-05-06 07:29 38.77014 -9.13175 338 ft 4 kts 168°
2026-05-06 07:30 38.77007 -9.13173 338 ft 0 kts 168°
2026-05-06 07:31 38.77005 -9.13172 338 ft 2 kts 168°
2026-05-06 07:32 38.76964 -9.13161 338 ft 8 kts 167°
2026-05-06 07:32 38.76914 -9.13147 337 ft 7 kts 168°
2026-05-06 07:32 38.76843 -9.13127 338 ft 12 kts 168°
2026-05-06 07:32 38.76784 -9.13154 336 ft 8 kts 243°
2026-05-06 07:33 38.76766 -9.13258 341 ft 16 kts 258°
2026-05-06 07:33 38.76735 -9.13386 351 ft 14 kts 233°
2026-05-06 07:33 38.76665 -9.13459 350 ft 12 kts 230°
2026-05-06 07:33 38.76637 -9.13592 347 ft 19 kts 258°
2026-05-06 07:34 38.76609 -9.13764 349 ft 20 kts 258°
2026-05-06 07:34 38.76582 -9.13930 349 ft 14 kts 258°
2026-05-06 07:34 38.76539 -9.14041 352 ft 14 kts 228°
2026-05-06 07:34 38.76495 -9.14135 359 ft 12 kts 262°
2026-05-06 07:35 38.76525 -9.14266 338 ft 19 kts 293°
2026-05-06 07:35 38.76573 -9.14407 331 ft 9 kts 295°
2026-05-06 07:35 38.76587 -9.14419 331 ft 1 kts 356°
2026-05-06 07:35 38.76618 -9.14403 332 ft 10 kts 24°
2026-05-06 07:36 38.76863 -9.14272 348 ft 73 kts 22°
2026-05-06 07:36 38.77521 -9.13919 364 ft 130 kts 22°
2026-05-06 07:36 38.78491 -9.13397 523 ft 161 kts 21°
2026-05-06 07:36 38.79493 -9.12853 1354 ft 154 kts 21°
2026-05-06 07:37 38.80526 -9.12306 1884 ft 170 kts 19°
2026-05-06 07:37 38.81674 -9.11659 2258 ft 193 kts 25°
2026-05-06 07:37 38.82917 -9.10728 2657 ft 220 kts 28°
2026-05-06 07:37 38.84289 -9.09669 3224 ft 240 kts 30°
2026-05-06 07:38 38.85744 -9.08535 4110 ft 247 kts 30°
2026-05-06 07:38 38.87224 -9.07375 5016 ft 252 kts 30°
2026-05-06 07:38 38.88744 -9.06185 5858 ft 259 kts 30°
2026-05-06 07:38 38.90224 -9.04822 6682 ft 266 kts 40°
2026-05-06 07:39 38.91601 -9.03193 7506 ft 271 kts 40°
2026-05-06 07:39 38.93002 -9.01545 8357 ft 276 kts 40°
2026-05-06 07:39 38.94430 -8.99876 9217 ft 280 kts 40°
2026-05-06 07:39 38.95883 -8.98179 10043 ft 285 kts 40°
2026-05-06 07:40 38.97391 -8.96424 10498 ft 304 kts 40°
2026-05-06 07:40 38.99013 -8.94541 10871 ft 322 kts 40°
2026-05-06 07:40 39.00693 -8.92581 11532 ft 329 kts 40°
2026-05-06 07:40 39.02401 -8.90585 12270 ft 334 kts 40°
2026-05-06 07:41 39.03547 -8.89245 12759 ft 338 kts 40°
2026-05-06 07:41 39.05296 -8.87198 13485 ft 343 kts 40°
2026-05-06 07:41 39.07071 -8.85118 14160 ft 347 kts 40°
2026-05-06 07:41 39.08867 -8.83009 14791 ft 352 kts 40°
2026-05-06 07:42 39.10685 -8.80870 15414 ft 356 kts 40°
2026-05-06 07:42 39.12525 -8.78708 16024 ft 360 kts 40°
2026-05-06 07:42 39.14388 -8.76520 16642 ft 365 kts 40°
2026-05-06 07:42 39.16273 -8.74303 17246 ft 369 kts 40°
2026-05-06 07:43 39.18044 -8.71871 17851 ft 375 kts 46°
2026-05-06 07:43 39.19779 -8.69338 18445 ft 379 kts 46°
2026-05-06 07:43 39.21532 -8.66771 18968 ft 383 kts 46°
2026-05-06 07:43 39.23302 -8.64181 19507 ft 387 kts 46°
2026-05-06 07:44 39.25089 -8.61563 20055 ft 390 kts 46°
2026-05-06 07:44 39.26887 -8.58928 20592 ft 393 kts 46°
2026-05-06 07:44 39.28695 -8.56272 21132 ft 396 kts 46°
2026-05-06 07:44 39.30514 -8.53588 21651 ft 399 kts 46°
2026-05-06 07:45 39.32351 -8.50877 22164 ft 402 kts 46°
2026-05-06 07:45 39.34201 -8.48149 22662 ft 405 kts 46°
2026-05-06 07:45 39.36068 -8.45400 23155 ft 409 kts 46°
2026-05-06 07:45 39.37952 -8.42628 23643 ft 412 kts 46°
2026-05-06 07:46 39.39821 -8.39873 24056 ft 415 kts 46°
2026-05-06 07:46 39.41729 -8.37058 24465 ft 417 kts 46°
2026-05-06 07:46 39.43646 -8.34221 24880 ft 420 kts 46°
2026-05-06 07:46 39.45569 -8.31366 25266 ft 423 kts 46°
2026-05-06 07:47 39.47509 -8.28486 25654 ft 426 kts 46°
2026-05-06 07:47 39.49462 -8.25593 26044 ft 428 kts 46°
2026-05-06 07:47 39.51426 -8.22682 26440 ft 431 kts 46°
2026-05-06 07:47 39.53398 -8.19754 26869 ft 432 kts 46°
2026-05-06 07:48 39.55377 -8.16812 27267 ft 434 kts 46°
2026-05-06 07:48 39.57363 -8.13859 27659 ft 436 kts 46°
2026-05-06 07:48 39.59362 -8.10887 28037 ft 438 kts 46°
2026-05-06 07:48 39.61367 -8.07899 28422 ft 440 kts 46°
2026-05-06 07:49 39.63379 -8.04891 28785 ft 443 kts 46°
2026-05-06 07:49 39.65401 -8.01868 29146 ft 445 kts 46°
2026-05-06 07:49 39.67500 -7.98912 29502 ft 446 kts 43°
2026-05-06 07:49 39.69697 -7.96064 29850 ft 447 kts 41°
2026-05-06 07:50 39.71961 -7.93281 30178 ft 449 kts 40°
2026-05-06 07:50 39.74260 -7.90516 30457 ft 451 kts 40°
2026-05-06 07:50 39.76563 -7.87729 30740 ft 454 kts 40°
2026-05-06 07:50 39.78860 -7.84902 31004 ft 456 kts 41°
2026-05-06 07:51 39.81153 -7.82033 31266 ft 458 kts 41°
2026-05-06 07:51 39.83437 -7.79129 31553 ft 459 kts 41°
2026-05-06 07:51 39.85711 -7.76219 31915 ft 459 kts 41°
2026-05-06 07:51 39.87984 -7.73310 32262 ft 458 kts 41°
2026-05-06 07:52 39.90259 -7.70407 32620 ft 458 kts 41°
2026-05-06 07:52 39.92538 -7.67506 32977 ft 457 kts 41°
2026-05-06 07:52 39.94811 -7.64614 33327 ft 457 kts 41°
2026-05-06 07:52 39.97086 -7.61724 33689 ft 457 kts 41°
2026-05-06 07:53 39.99364 -7.58831 34032 ft 457 kts 41°
2026-05-06 07:53 40.01642 -7.55937 34322 ft 457 kts 41°
2026-05-06 07:53 40.03915 -7.53043 34630 ft 456 kts 41°
2026-05-06 07:53 40.06182 -7.50147 34887 ft 456 kts 41°
2026-05-06 07:54 40.08448 -7.47243 35138 ft 456 kts 41°
2026-05-06 07:54 40.10714 -7.44338 35379 ft 457 kts 41°
2026-05-06 07:54 40.12981 -7.41430 35609 ft 457 kts 41°
2026-05-06 07:54 40.15249 -7.38521 35849 ft 457 kts 41°
2026-05-06 07:55 40.17519 -7.35607 36082 ft 457 kts 42°
2026-05-06 07:55 40.19789 -7.32690 36313 ft 457 kts 42°
2026-05-06 07:55 40.22054 -7.29774 36524 ft 457 kts 42°
2026-05-06 07:55 40.24322 -7.26852 36726 ft 458 kts 42°
2026-05-06 07:56 40.26558 -7.23969 36963 ft 458 kts 42°
2026-05-06 07:56 40.28827 -7.21041 37199 ft 457 kts 42°
2026-05-06 07:56 40.31095 -7.18114 37396 ft 458 kts 42°
2026-05-06 07:56 40.33365 -7.15184 37588 ft 458 kts 42°
2026-05-06 07:57 40.35636 -7.12247 37796 ft 459 kts 42°
2026-05-06 07:57 40.37907 -7.09307 37982 ft 459 kts 42°
2026-05-06 07:57 40.42475 -7.03375 38040 ft 464 kts 42°
2026-05-06 07:58 40.47073 -6.97397 38044 ft 466 kts 42°
2026-05-06 07:58 40.51672 -6.91406 38043 ft 466 kts 43°
2026-05-06 07:59 40.56263 -6.85399 38046 ft 466 kts 43°
2026-05-06 07:59 40.60858 -6.79380 38043 ft 466 kts 42°
2026-05-06 08:00 40.65457 -6.73347 38041 ft 467 kts 42°
2026-05-06 08:00 40.70062 -6.67289 38050 ft 468 kts 43°
2026-05-06 08:01 40.74670 -6.61229 38067 ft 468 kts 43°
2026-05-06 08:01 40.79274 -6.55160 38065 ft 468 kts 43°
2026-05-06 08:02 40.83873 -6.49083 38059 ft 468 kts 43°
2026-05-06 08:02 40.88465 -6.43000 38057 ft 467 kts 43°
2026-05-06 08:03 40.93055 -6.36907 38051 ft 468 kts 43°
2026-05-06 08:03 40.97646 -6.30797 38067 ft 468 kts 43°
2026-05-06 08:04 41.02309 -6.24804 38060 ft 467 kts 40°
2026-05-06 08:04 41.07159 -6.19103 38055 ft 466 kts 38°
2026-05-06 08:05 41.12038 -6.13439 38054 ft 466 kts 39°
2026-05-06 08:05 41.16862 -6.07703 38050 ft 466 kts 39°
2026-05-06 08:06 41.21660 -6.01916 38048 ft 466 kts 39°
2026-05-06 08:06 41.26428 -5.96163 38048 ft 466 kts 39°
2026-05-06 08:07 41.31232 -5.90383 38053 ft 466 kts 39°
2026-05-06 08:07 41.36032 -5.84591 38051 ft 465 kts 39°
2026-05-06 08:08 41.40824 -5.78793 38040 ft 466 kts 39°
2026-05-06 08:08 41.45617 -5.72991 38058 ft 465 kts 39°
2026-05-06 08:09 41.50389 -5.67169 38053 ft 465 kts 43°
2026-05-06 08:09 41.54231 -5.60214 38040 ft 469 kts 62°
2026-05-06 08:10 41.56917 -5.52254 38044 ft 470 kts 65°
2026-05-06 08:10 41.59577 -5.44271 38034 ft 471 kts 65°
2026-05-06 08:11 41.62229 -5.36267 38041 ft 471 kts 65°
2026-05-06 08:11 41.64883 -5.28257 38035 ft 471 kts 65°
2026-05-06 08:12 41.67533 -5.20228 38046 ft 472 kts 65°
2026-05-06 08:12 41.70169 -5.12192 38041 ft 471 kts 65°
2026-05-06 08:13 41.72797 -5.04165 38049 ft 471 kts 65°
2026-05-06 08:13 41.75421 -4.96127 38045 ft 471 kts 65°
2026-05-06 08:14 41.78041 -4.88078 38039 ft 472 kts 65°
2026-05-06 08:14 41.80664 -4.80006 38038 ft 473 kts 65°
2026-05-06 08:15 41.83283 -4.71922 38040 ft 473 kts 65°
2026-05-06 08:15 41.85887 -4.63826 38041 ft 473 kts 65°
2026-05-06 08:16 41.88497 -4.55724 38047 ft 473 kts 65°
2026-05-06 08:16 41.91104 -4.47610 38056 ft 473 kts 65°
2026-05-06 08:17 41.93693 -4.39485 38052 ft 473 kts 65°
2026-05-06 08:17 41.96280 -4.31359 38054 ft 473 kts 65°
2026-05-06 08:18 41.98855 -4.23284 38048 ft 473 kts 65°
2026-05-06 08:18 42.01433 -4.15138 38050 ft 473 kts 66°
2026-05-06 08:19 42.04041 -4.07013 38042 ft 473 kts 64°
2026-05-06 08:19 42.06861 -3.99025 38049 ft 472 kts 62°
2026-05-06 08:20 42.09752 -3.91089 38047 ft 472 kts 62°
2026-05-06 08:20 42.12594 -3.83126 38043 ft 472 kts 63°
2026-05-06 08:21 42.15383 -3.75122 38049 ft 472 kts 63°
2026-05-06 08:21 42.18167 -3.67109 38048 ft 472 kts 63°
2026-05-06 08:22 42.20953 -3.59089 38040 ft 473 kts 63°
2026-05-06 08:22 42.23747 -3.51052 38042 ft 473 kts 63°
2026-05-06 08:23 42.26541 -3.43003 38043 ft 473 kts 63°
2026-05-06 08:23 42.29322 -3.34939 38030 ft 474 kts 64°
2026-05-06 08:24 42.32100 -3.26861 38032 ft 474 kts 64°
2026-05-06 08:24 42.34874 -3.18776 38030 ft 474 kts 64°
2026-05-06 08:25 42.37644 -3.10681 38051 ft 474 kts 64°
2026-05-06 08:25 42.40402 -3.02579 38051 ft 474 kts 64°
2026-05-06 08:26 42.43156 -2.94474 38045 ft 474 kts 64°
2026-05-06 08:26 42.45167 -2.86009 38039 ft 475 kts 81°
2026-05-06 08:27 42.45500 -2.77092 38037 ft 475 kts 89°
2026-05-06 08:27 42.45598 -2.69664 38034 ft 475 kts 89°
2026-05-06 08:28 42.45713 -2.60713 38032 ft 476 kts 89°
2026-05-06 08:28 42.45851 -2.50300 38028 ft 476 kts 89°
2026-05-06 08:29 42.45944 -2.42781 38030 ft 477 kts 89°
2026-05-06 08:29 42.46098 -2.33801 38032 ft 477 kts 84°
2026-05-06 08:30 42.47340 -2.25045 38030 ft 477 kts 77°
2026-05-06 08:30 42.48810 -2.16269 38024 ft 478 kts 77°
2026-05-06 08:31 42.50260 -2.07461 38029 ft 479 kts 77°
2026-05-06 08:31 42.51707 -1.98642 38029 ft 480 kts 77°
2026-05-06 08:32 42.53157 -1.89809 38027 ft 480 kts 77°
2026-05-06 08:32 42.54599 -1.80973 38025 ft 480 kts 77°
2026-05-06 08:33 42.56036 -1.72119 38034 ft 480 kts 77°
2026-05-06 08:33 42.57467 -1.63263 38030 ft 481 kts 77°
2026-05-06 08:34 42.59601 -1.49962 38026 ft 481 kts 78°
2026-05-06 08:35 42.61011 -1.41077 38045 ft 482 kts 78°
2026-05-06 08:35 42.62411 -1.32199 38041 ft 481 kts 78°
2026-05-06 08:36 42.63821 -1.23316 38036 ft 481 kts 78°
2026-05-06 08:36 42.65220 -1.14440 38016 ft 481 kts 78°
2026-05-06 08:37 42.66606 -1.05549 38015 ft 481 kts 78°
2026-05-06 08:37 42.67986 -0.96656 38016 ft 481 kts 78°
2026-05-06 08:38 42.69360 -0.87761 38002 ft 481 kts 78°
2026-05-06 08:38 42.70720 -0.78917 38002 ft 481 kts 78°
2026-05-06 08:39 42.72072 -0.70007 37994 ft 482 kts 79°
2026-05-06 08:39 42.73420 -0.61080 37993 ft 482 kts 79°
2026-05-06 08:40 42.74772 -0.52153 37992 ft 482 kts 79°
2026-05-06 08:40 42.76121 -0.43205 38000 ft 483 kts 79°
2026-05-06 08:41 42.77460 -0.34263 38000 ft 482 kts 79°
2026-05-06 08:41 42.78808 -0.25319 38004 ft 482 kts 75°
2026-05-06 08:42 42.81378 -0.16939 37997 ft 480 kts 56°
2026-05-06 08:42 42.85446 -0.09774 37998 ft 479 kts 49°
2026-05-06 08:43 42.89674 -0.02755 38004 ft 479 kts 49°
2026-05-06 08:43 42.93886 0.04287 37995 ft 479 kts 49°
2026-05-06 08:44 42.98100 0.11347 37991 ft 479 kts 49°
2026-05-06 08:44 43.02319 0.18422 38009 ft 481 kts 49°
2026-05-06 08:45 43.06538 0.25518 38016 ft 480 kts 49°
2026-05-06 08:45 43.10748 0.32614 38012 ft 480 kts 49°
2026-05-06 08:46 43.14959 0.39719 38006 ft 480 kts 49°
2026-05-06 08:46 43.19167 0.46831 37999 ft 481 kts 49°
2026-05-06 08:47 43.23365 0.53969 38019 ft 481 kts 50°
2026-05-06 08:47 43.27554 0.61124 38010 ft 481 kts 50°
2026-05-06 08:48 43.31713 0.68216 38005 ft 480 kts 50°
2026-05-06 08:48 43.35900 0.75363 38006 ft 480 kts 50°
2026-05-06 08:49 43.40087 0.82514 37996 ft 480 kts 50°
2026-05-06 08:49 43.44261 0.89685 38008 ft 481 kts 50°
2026-05-06 08:50 43.48426 0.96881 38002 ft 480 kts 50°
2026-05-06 08:50 43.52588 1.04065 37995 ft 479 kts 50°
2026-05-06 08:51 43.56746 1.11234 37984 ft 479 kts 50°
2026-05-06 08:51 43.60895 1.18425 37978 ft 479 kts 50°
2026-05-06 08:52 43.65029 1.25635 37989 ft 479 kts 51°
2026-05-06 08:52 43.69155 1.32864 37991 ft 479 kts 51°
2026-05-06 08:53 43.73145 1.40231 37989 ft 479 kts 53°
2026-05-06 08:53 43.77055 1.47690 37991 ft 479 kts 53°
2026-05-06 08:54 43.80974 1.55146 37972 ft 479 kts 53°
2026-05-06 08:54 43.84920 1.62590 37989 ft 479 kts 53°
2026-05-06 08:55 43.88875 1.70027 37987 ft 479 kts 53°
2026-05-06 08:55 43.92815 1.77462 37978 ft 478 kts 53°
2026-05-06 08:56 43.96721 1.84928 37981 ft 478 kts 54°
2026-05-06 08:56 44.00518 1.92501 37967 ft 478 kts 55°
2026-05-06 08:57 44.04271 2.00137 37984 ft 478 kts 55°
2026-05-06 08:57 44.08027 2.07760 37973 ft 478 kts 55°
2026-05-06 08:58 44.11802 2.15377 37978 ft 478 kts 55°
2026-05-06 08:58 44.15554 2.22952 37974 ft 479 kts 55°
2026-05-06 08:59 44.19322 2.30599 37961 ft 479 kts 55°
2026-05-06 08:59 44.23077 2.38253 37976 ft 479 kts 55°
2026-05-06 09:00 44.26833 2.45922 37969 ft 479 kts 56°
2026-05-06 09:00 44.30584 2.53591 37959 ft 479 kts 56°
2026-05-06 09:01 44.34334 2.61280 37966 ft 479 kts 56°
2026-05-06 09:01 44.38071 2.68978 37946 ft 479 kts 56°
2026-05-06 09:02 44.41818 2.76681 37963 ft 479 kts 56°
2026-05-06 09:02 44.45551 2.84396 37968 ft 479 kts 56°
2026-05-06 09:03 44.49280 2.92129 37967 ft 479 kts 56°
2026-05-06 09:03 44.53005 2.99863 37966 ft 479 kts 56°
2026-05-06 09:04 44.56722 3.07618 37957 ft 479 kts 56°
2026-05-06 09:04 44.60430 3.15392 37965 ft 480 kts 57°
2026-05-06 09:05 44.63918 3.23376 37964 ft 480 kts 61°
2026-05-06 09:05 44.67119 3.31597 37960 ft 480 kts 62°
2026-05-06 09:06 44.70294 3.39855 37958 ft 480 kts 62°
2026-05-06 09:06 44.73537 3.48051 37951 ft 480 kts 61°
2026-05-06 09:07 44.76802 3.56173 37939 ft 480 kts 61°
2026-05-06 09:07 44.80074 3.64359 37936 ft 481 kts 61°
2026-05-06 09:08 44.83325 3.72583 37939 ft 480 kts 62°
2026-05-06 09:08 44.86558 3.80811 37931 ft 480 kts 62°
2026-05-06 09:09 44.89791 3.89050 37920 ft 480 kts 62°
2026-05-06 09:09 44.93032 3.97296 37937 ft 481 kts 62°
2026-05-06 09:10 44.96263 4.05556 37940 ft 481 kts 62°
2026-05-06 09:10 44.99480 4.13822 37935 ft 480 kts 62°
2026-05-06 09:11 45.02686 4.22105 37919 ft 480 kts 62°
2026-05-06 09:11 45.05889 4.30384 37770 ft 481 kts 62°
2026-05-06 09:11 45.07497 4.34535 37510 ft 480 kts 62°
2026-05-06 09:12 45.09101 4.38678 37240 ft 480 kts 62°
2026-05-06 09:12 45.10703 4.42824 36651 ft 482 kts 62°
2026-05-06 09:12 45.12317 4.47012 35768 ft 487 kts 63°
2026-05-06 09:12 45.13935 4.51226 35199 ft 485 kts 63°
2026-05-06 09:13 45.15543 4.55423 34619 ft 483 kts 63°
2026-05-06 09:13 45.17140 4.59601 34021 ft 482 kts 63°
2026-05-06 09:13 45.18734 4.63771 33402 ft 479 kts 63°
2026-05-06 09:13 45.20313 4.67901 32903 ft 474 kts 64°
2026-05-06 09:14 45.21874 4.71993 32364 ft 470 kts 64°
2026-05-06 09:14 45.23421 4.76056 31832 ft 467 kts 64°
2026-05-06 09:14 45.24956 4.80097 31324 ft 464 kts 64°
2026-05-06 09:14 45.26458 4.84073 30813 ft 460 kts 64°
2026-05-06 09:15 45.27963 4.88051 30306 ft 456 kts 64°
2026-05-06 09:15 45.29458 4.91994 29779 ft 452 kts 64°
2026-05-06 09:15 45.30942 4.95911 29155 ft 449 kts 64°
2026-05-06 09:15 45.32410 4.99787 28684 ft 442 kts 64°
2026-05-06 09:16 45.33849 5.03596 28256 ft 434 kts 64°
2026-05-06 09:16 45.35261 5.07343 27914 ft 426 kts 64°
2026-05-06 09:16 45.36650 5.11046 27466 ft 421 kts 64°
2026-05-06 09:16 45.38013 5.14694 27014 ft 416 kts 64°
2026-05-06 09:17 45.39363 5.18301 26593 ft 411 kts 64°
2026-05-06 09:17 45.40251 5.20674 26300 ft 408 kts 64°
2026-05-06 09:17 45.41572 5.24212 25871 ft 403 kts 64°
2026-05-06 09:17 45.42881 5.27721 25410 ft 399 kts 64°
2026-05-06 09:18 45.44179 5.31188 24969 ft 395 kts 64°
2026-05-06 09:18 45.45465 5.34633 24500 ft 392 kts 63°
2026-05-06 09:18 45.46738 5.38058 24049 ft 389 kts 63°
2026-05-06 09:18 45.48123 5.41348 23552 ft 387 kts 54°
2026-05-06 09:19 45.49914 5.44204 22948 ft 386 kts 43°
2026-05-06 09:19 45.52047 5.46488 22474 ft 381 kts 31°
2026-05-06 09:19 45.54324 5.48353 22136 ft 374 kts 30°
2026-05-06 09:19 45.56569 5.50204 21693 ft 371 kts 31°
2026-05-06 09:20 45.58789 5.52052 21247 ft 368 kts 31°
2026-05-06 09:20 45.60992 5.53893 20812 ft 366 kts 31°
2026-05-06 09:20 45.63178 5.55727 20377 ft 363 kts 31°
2026-05-06 09:20 45.65350 5.57549 19948 ft 361 kts 30°
2026-05-06 09:21 45.67510 5.59360 19524 ft 358 kts 30°
2026-05-06 09:21 45.69666 5.61125 19108 ft 356 kts 29°
2026-05-06 09:21 45.71830 5.62839 18688 ft 354 kts 28°
2026-05-06 09:21 45.73989 5.64526 18287 ft 353 kts 28°
2026-05-06 09:22 45.76146 5.66205 17845 ft 352 kts 28°
2026-05-06 09:22 45.78296 5.67884 17567 ft 352 kts 28°
2026-05-06 09:22 45.80437 5.69568 17283 ft 351 kts 28°
2026-05-06 09:22 45.82565 5.71253 17024 ft 349 kts 28°
2026-05-06 09:23 45.84688 5.72935 16766 ft 347 kts 28°
2026-05-06 09:23 45.86780 5.74656 16505 ft 346 kts 34°
2026-05-06 09:23 45.88608 5.76815 16247 ft 344 kts 46°
2026-05-06 09:23 45.90109 5.79476 15992 ft 343 kts 55°
2026-05-06 09:24 45.91506 5.82247 15731 ft 342 kts 55°
2026-05-06 09:24 45.92904 5.85008 15480 ft 341 kts 54°
2026-05-06 09:24 45.94300 5.87758 15227 ft 340 kts 54°
2026-05-06 09:24 45.95757 5.90425 14977 ft 340 kts 47°
2026-05-06 09:25 45.97421 5.92826 14731 ft 339 kts 45°
2026-05-06 09:25 45.99088 5.95215 14474 ft 338 kts 45°
2026-05-06 09:25 46.00749 5.97603 14233 ft 337 kts 45°
2026-05-06 09:25 46.02408 5.99988 13997 ft 337 kts 45°
2026-05-06 09:26 46.04064 6.02368 13751 ft 336 kts 45°
2026-05-06 09:26 46.05715 6.04748 13494 ft 336 kts 45°
2026-05-06 09:26 46.07358 6.07124 13230 ft 334 kts 45°
2026-05-06 09:26 46.08996 6.09495 12934 ft 333 kts 45°
2026-05-06 09:27 46.10625 6.11863 12669 ft 332 kts 46°
2026-05-06 09:27 46.12236 6.14236 12430 ft 331 kts 46°
2026-05-06 09:27 46.13836 6.16610 12141 ft 329 kts 46°
2026-05-06 09:27 46.15414 6.18958 11858 ft 324 kts 46°
2026-05-06 09:28 46.16969 6.21272 11566 ft 319 kts 46°
2026-05-06 09:28 46.18502 6.23551 11295 ft 315 kts 46°
2026-05-06 09:28 46.20024 6.25813 11023 ft 313 kts 46°
2026-05-06 09:28 46.21541 6.28052 10748 ft 312 kts 46°
2026-05-06 09:29 46.23060 6.30281 10473 ft 310 kts 46°
2026-05-06 09:29 46.24572 6.32496 10201 ft 309 kts 46°
2026-05-06 09:29 46.26077 6.34707 9933 ft 308 kts 46°
2026-05-06 09:29 46.27577 6.36912 9653 ft 307 kts 46°
2026-05-06 09:30 46.29067 6.39102 9351 ft 305 kts 46°
2026-05-06 09:30 46.30539 6.41264 9049 ft 299 kts 45°
2026-05-06 09:30 46.32214 6.42964 8758 ft 292 kts 20°
2026-05-06 09:30 46.34173 6.43434 8471 ft 283 kts 352°
2026-05-06 09:31 46.35978 6.42628 8162 ft 273 kts 324°
2026-05-06 09:31 46.37445 6.40963 7775 ft 258 kts 314°
2026-05-06 09:31 46.38731 6.39213 7321 ft 248 kts 305°
2026-05-06 09:31 46.39455 6.37097 6890 ft 232 kts 276°
2026-05-06 09:32 46.39426 6.34843 6408 ft 221 kts 251°
2026-05-06 09:32 46.38723 6.32911 5885 ft 217 kts 227°
2026-05-06 09:32 46.37677 6.31347 5369 ft 215 kts 225°
2026-05-06 09:32 46.36629 6.29802 4871 ft 215 kts 225°
2026-05-06 09:33 46.35604 6.28286 4431 ft 204 kts 225°
2026-05-06 09:33 46.34640 6.26860 4162 ft 191 kts 225°
2026-05-06 09:33 46.33734 6.25522 3908 ft 183 kts 224°
2026-05-06 09:33 46.32850 6.24217 3654 ft 181 kts 225°
2026-05-06 09:34 46.31973 6.22922 3414 ft 179 kts 225°
2026-05-06 09:34 46.31123 6.21669 3181 ft 167 kts 225°
2026-05-06 09:34 46.30337 6.20510 2951 ft 155 kts 225°
2026-05-06 09:34 46.29604 6.19429 2739 ft 148 kts 226°
2026-05-06 09:35 46.28894 6.18383 2538 ft 144 kts 225°
2026-05-06 09:35 46.28200 6.17363 2342 ft 141 kts 225°
2026-05-06 09:35 46.27517 6.16355 2123 ft 141 kts 225°
2026-05-06 09:35 46.26837 6.15353 1939 ft 139 kts 226°
2026-05-06 09:36 46.26161 6.14357 1719 ft 138 kts 225°
2026-05-06 09:36 46.25483 6.13361 1539 ft 141 kts 226°
2026-05-06 09:36 46.24801 6.12358 1377 ft 137 kts 225°
2026-05-06 09:36 46.24232 6.11521 1374 ft 93 kts 226°
2026-05-06 09:37 46.23901 6.11035 1378 ft 43 kts 225°
2026-05-06 09:37 46.23768 6.10850 1380 ft 20 kts 218°
2026-05-06 09:37 46.23651 6.10754 1383 ft 19 kts 201°
2026-05-06 09:37 46.23541 6.10706 1384 ft 13 kts 195°
2026-05-06 09:38 46.23481 6.10692 1387 ft 4 kts 156°
2026-05-06 09:38 46.23474 6.10734 1391 ft 6 kts 75°
2026-05-06 09:38 46.23497 6.10774 1391 ft 8 kts 45°
2026-05-06 09:38 46.23536 6.10832 1388 ft 6 kts 45°
2026-05-06 09:39 46.23566 6.10877 1391 ft 5 kts 45°
2026-05-06 09:39 46.23596 6.10920 1388 ft 5 kts 45°
2026-05-06 09:39 46.23599 6.10954 1399 ft 4 kts 116°
2026-05-06 09:39 46.23574 6.10993 1400 ft 6 kts 136°
2026-05-06 09:40 46.23564 6.11007 1393 ft 0 kts 136°
2026-05-06 09:40 46.23563 6.11007 1393 ft 0 kts 136°